This demonstration page uses our WeatherBlox Daily Observations layout. Learn more.

Left ArrowRight Arrow

39.51506, -84.39828

Hourly Observations for June 1, 2019

Temp ( °F °C ) Dew Point ( °F °C ) Humidity (%) Winds ( mph kmh ) Pressure ( in mb ) Visibility ( mi km ) Precip ( " mm )
12:15 am 00:15 Mostly Cloudy with Mist and Fog 59 15.2 59 15 99 99 N N/A 29.91 1013 1 1 N/A
12:35 am 00:35 Clear with Mist and Fog 61 16 60 15.8 99 99 N N/A 29.90 1013 4 6 N/A
12:55 am 00:55 Clear with Mist and Fog 59 15.2 59 15.1 99 99 N N/A 29.91 1013 3 5 N/A
1:15 am 01:15 Mostly Cloudy with Fog 58 14.6 58 14.5 99 99 N N/A 29.90 1012 1 1 N/A
1:35 am 01:35 Mostly Cloudy with Fog 59 14.8 58 14.7 99 99 N N/A 29.90 1012 0 0 N/A
1:55 am 01:55 Mostly Cloudy with Fog 58 14.3 58 14.3 100 100 N N/A 29.90 1012 1 1 N/A
2:15 am 02:15 Cloudy with Fog 58 14.2 57 14.1 99 99 N N/A 29.91 1013 0 0 N/A
2:35 am 02:35 Cloudy with Fog 57 14 57 13.9 99 99 N N/A 29.91 1013 0 0 N/A
2:55 am 02:55 Cloudy with Fog 58 14.3 58 14.2 99 99 N N/A 29.91 1013 0 0 N/A
3:15 am 03:15 Cloudy with Fog 58 14.6 58 14.6 100 100 N N/A 29.91 1013 1 1 N/A
3:35 am 03:35 Cloudy with Fog 58 14.4 58 14.3 99 99 N N/A 29.91 1013 1 1 N/A
3:55 am 03:55 Cloudy with Fog 58 14.4 58 14.3 99 99 N N/A 29.91 1013 0 0 N/A
4:15 am 04:15 Cloudy with Fog 58 14.5 58 14.5 100 100 N N/A 29.91 1013 0 0 N/A
4:35 am 04:35 Cloudy with Fog 57 14.1 57 14 99 99 N N/A 29.91 1013 0 0 N/A
4:55 am 04:55 Cloudy with Fog 58 14.2 57 14.1 99 99 N N/A 29.91 1013 0 0 N/A
5:15 am 05:15 Cloudy with Fog 58 14.3 58 14.2 99 99 N N/A 29.91 1013 0 0 N/A
5:35 am 05:35 Cloudy with Fog 58 14.2 58 14.2 100 100 N N/A 29.91 1013 0 0 N/A
5:55 am 05:55 Cloudy with Fog 57 14 57 14 100 100 N N/A 29.91 1013 0 0 N/A
6:15 am 06:15 Cloudy with Fog 57 14 57 13.9 99 99 N N/A 29.92 1013 5 8 N/A
6:35 am 06:35 Cloudy with Fog 57 13.8 57 13.8 100 100 N N/A 29.92 1013 5 8 N/A
6:55 am 06:55 Cloudy with Fog 56 13.5 56 13.4 99 99 N N/A 29.92 1013 0 0 N/A
7:15 am 07:15 Cloudy with Fog 58 14.6 58 14.5 99 99 N N/A 29.93 1013 5 8 N/A
7:35 am 07:35 Cloudy with Fog 59 15 59 15 100 100 N N/A 29.93 1013 5 8 N/A
7:55 am 07:55 Cloudy with Fog 59 15.2 59 15.2 100 100 N N/A 29.93 1013 5 8 N/A
8:15 am 08:15 Cloudy with Fog 60 15.8 60 15.8 100 100 SSW 3 6 29.92 1013 5 8 N/A
8:35 am 08:35 Cloudy with Fog 61 16.2 61 16.2 100 100 WSW 3 6 29.92 1013 5 8 N/A
8:55 am 08:55 Cloudy with Fog 63 17 63 17 100 100 SSW 5 7 29.92 1013 1 1 N/A
9:15 am 09:15 Mostly Cloudy with Mist and Fog 64 17.5 64 17.5 100 100 N N/A 29.93 1014 5 8 N/A
9:35 am 09:35 Sunny 65 18.4 65 18.4 100 100 SSW 6 9 29.92 1013 10 16 N/A
9:55 am 09:55 Sunny 66 19 66 18.7 98 98 N N/A 29.92 1013 10 16 N/A
10:15 am 10:15 Sunny 68 20.1 66 19 93 93 SSW 3 6 29.91 1013 10 16 N/A
10:35 am 10:35 Sunny 70 21.2 67 19.3 89 89 SSW 5 7 29.90 1013 10 16 N/A
10:55 am 10:55 Sunny 72 22 68 19.8 87 87 SSW 7 11 29.90 1013 10 16 N/A
11:15 am 11:15 Sunny 73 22.8 67 19.6 82 82 SW 6 9 29.90 1012 10 16 N/A
11:35 am 11:35 Sunny 76 24.2 67 19.3 74 74 SSW 7 11 29.89 1012 10 16 N/A
11:55 am 11:55 Sunny 76 24.7 67 19.3 72 72 SW 7 11 29.88 1012 10 16 N/A
12:15 pm 12:15 Sunny 77 24.8 67 19.3 72 72 SSW 7 11 29.88 1012 10 16 N/A
12:35 pm 12:35 Sunny 77 25 65 18.5 67 67 SW 7 11 29.87 1012 10 16 0.01 0.25
12:55 pm 12:55 Sunny 78 25.4 66 18.9 67 67 SSW 8 13 29.87 1012 10 16 0.01 0.25
1:15 pm 13:15 Partly Cloudy 78 25.7 65 18.6 65 65 WSW 12 19 29.86 1011 10 16 N/A
1:35 pm 13:35 Sunny 77 25.1 65 18.5 67 67 SW 10 17 29.86 1011 10 16 N/A
1:55 pm 13:55 Sunny 78 25.8 65 18.3 63 63 WSW 8 13 29.85 1011 10 16 N/A
2:15 pm 14:15 Partly Cloudy 78 25.8 64 18 62 62 SW 12 19 29.85 1011 10 16 N/A
2:35 pm 14:35 Partly Cloudy 79 25.9 64 18 62 62 WSW 9 15 29.84 1011 10 16 N/A
2:55 pm 14:55 Sunny 80 26.5 65 18.4 61 61 SSW 12 19 29.83 1010 10 16 N/A
3:15 pm 15:15 Sunny 80 26.6 65 18.5 61 61 WSW 12 19 29.83 1010 10 16 N/A
3:35 pm 15:35 Sunny 80 26.8 64 17.8 58 58 WSW 10 17 29.82 1010 10 16 N/A
3:55 pm 15:55 Sunny 81 27.4 64 17.6 55 55 SW 9 15 29.82 1010 10 16 N/A
4:15 pm 16:15 Sunny 81 27.4 64 17.7 55 55 WSW 12 19 29.81 1009 10 16 N/A
4:35 pm 16:35 Partly Cloudy 81 27.4 64 17.7 55 55 SW 13 20 29.81 1009 10 16 N/A
4:55 pm 16:55 Sunny 81 27 63 17.1 55 55 WSW 13 20 29.81 1009 10 16 N/A
5:15 pm 17:15 Partly Cloudy 81 27 62 16.7 53 53 WSW 13 20 29.80 1009 10 16 N/A
5:35 pm 17:35 Partly Cloudy 81 27.3 62 16.6 52 52 WSW 13 20 29.80 1009 10 16 N/A
5:55 pm 17:55 Partly Cloudy 81 27.3 63 17.2 54 54 WSW 10 17 29.79 1009 10 16 N/A
6:15 pm 18:15 Partly Cloudy 80 26.7 62 16.7 54 54 SW 12 19 29.78 1008 10 16 N/A
6:35 pm 18:35 Partly Cloudy 80 26.6 63 17.2 56 56 SW 13 20 29.78 1008 10 16 N/A
6:55 pm 18:55 Partly Cloudy 79 26.3 62 16.9 56 56 SW 9 15 29.78 1008 10 16 N/A
7:15 pm 19:15 Sunny 79 26.1 61 16 54 54 WSW 12 19 29.78 1008 10 16 N/A
7:35 pm 19:35 Sunny 78 25.6 61 16.1 56 56 WSW 8 13 29.78 1009 10 16 N/A
7:55 pm 19:55 Sunny 76 24.6 62 16.4 60 60 SW 7 11 29.78 1009 10 16 N/A
8:15 pm 20:15 Sunny 74 23.3 62 16.8 67 67 SW 7 11 29.78 1008 10 16 N/A
8:35 pm 20:35 Sunny 72 22.2 62 16.8 72 72 SW 7 11 29.78 1008 10 16 N/A
8:55 pm 20:55 Sunny 71 21.9 62 16.6 72 72 SW 6 9 29.78 1008 10 16 N/A
9:15 pm 21:15 Clear 70 21 62 16.5 76 76 SSW 3 6 29.78 1009 10 16 N/A
9:35 pm 21:35 Clear 69 20.7 62 16.6 77 77 SW 3 6 29.78 1009 10 16 N/A
9:55 pm 21:55 Clear 66 18.9 63 17.4 91 91 WSW 5 7 29.80 1009 10 16 N/A
10:15 pm 22:15 Clear 66 19.1 64 17.5 91 91 SW 5 7 29.80 1009 10 16 N/A
10:35 pm 22:35 Clear 67 19.7 62 16.8 83 83 SW 7 11 29.81 1009 10 16 N/A
10:55 pm 22:55 Clear 68 20.1 62 16.9 82 82 SW 7 11 29.79 1009 10 16 N/A
11:15 pm 23:15 Clear 68 20.1 63 17 82 82 SW 7 11 29.78 1009 10 16 N/A
11:35 pm 23:35 Clear 68 20.2 63 17.1 82 82 SSW 8 13 29.77 1008 10 16 N/A
11:55 pm 23:55 Clear 67 19.4 62 16.9 86 86 SW 6 9 29.78 1008 10 16 N/A

Powered by AerisWeather